Location: ??????
(56.0120°N, 39.1740°E)
Time: 17:54:12
(UTC+00:00)

Cosmos 1513 Rocket - Pass Details

Date: 14 April 2026
Orbit: 938 x 1008 km, 82.9° (Epoch: 16 May)

Event Time Altitude Azimuth Distance (km) Brightness Sun altitude
Exits shadow 22:40:27 44° 196° (SSW) 1,366 4.8 -22.4°
Maximum altitude 22:42:42 85° 280° (W) 1,015 4.5 -22.3°
Drops below altitude 10° 22:49:07 10° 11° (N) 2,771 8.0 -21.9°
Sets 22:51:38 0° 12° (NNE) 3,714 9.0 -21.8°
